Time,TemperatureF,DewpointF,PressureIn,WindDirection,WindDirectionDegrees,WindSpeedMPH,WindSpeedGustMPH,Humidity,HourlyPrecipIn,Conditions,Clouds,dailyrainin,SolarRadiationWatts/m^2,SoftwareType,DateUTC
2013-03-10 00:00:00,50.9,41.1,30.21,NNE,31,2.0,2.0,69,0.00,,,0.00,0,Wunderground v.1.15,2013-03-10 08:00:00,
2013-03-10 00:05:00,50.8,41.4,30.21,NNE,31,1.0,19.0,70,0.00,,,0.00,0,Wunderground v.1.15,2013-03-10 08:05:00,
2013-03-10 00:10:00,50.6,41.2,30.21,NNE,31,1.0,19.0,70,0.00,,,0.00,0,Wunderground v.1.15,2013-03-10 08:10:00,
2013-03-10 00:15:00,50.1,41.1,30.21,NNE,31,2.0,19.0,71,0.00,,,0.00,0,Wunderground v.1.15,2013-03-10 08:15:00,
2013-03-10 00:20:00,49.9,40.9,30.21,NNE,31,2.0,2.0,71,0.00,,,0.00,0,Wunderground v.1.15,2013-03-10 08:20:00,
2013-03-10 00:25:00,49.9,40.9,30.21,NNE,31,0.0,19.0,71,0.00,,,0.00,0,Wunderground v.1.15,2013-03-10 08:25:00,
2013-03-10 00:30:00,49.7,41.0,30.21,NNE,31,0.0,19.0,72,0.00,,,0.00,0,Wunderground v.1.15,2013-03-10 08:30:00,
2013-03-10 00:35:00,49.5,40.5,30.21,NNE,31,0.0,19.0,71,0.00,,,0.00,0,Wunderground v.1.15,2013-03-10 08:35:00,
2013-03-10 00:40:00,49.4,40.7,30.21,NNE,31,0.0,19.0,72,0.00,,,0.00,0,Wunderground v.1.15,2013-03-10 08:40:00,
2013-03-10 00:50:00,49.4,40.4,30.22,NNE,31,2.0,19.0,71,0.00,,,0.00,0,Wunderground v.1.15,2013-03-10 08:50:00,
2013-03-10 00:55:00,49.3,40.3,30.22,NNE,31,3.0,19.0,71,0.00,,,0.00,0,Wunderground v.1.15,2013-03-10 08:55:00,
2013-03-10 01:05:00,49.4,40.4,30.22,NNE,33,3.0,19.0,71,0.00,,,0.00,0,Wunderground v.1.15,2013-03-10 09:05:00,
2013-03-10 01:10:00,49.6,40.2,30.22,NE,34,4.0,19.0,70,0.00,,,0.00,0,Wunderground v.1.15,2013-03-10 09:10:00,
2013-03-10 01:15:00,49.7,39.9,30.22,ENE,61,4.0,19.0,69,0.00,,,0.00,0,Wunderground v.1.15,2013-03-10 09:15:00,
2013-03-10 01:20:00,49.7,39.9,30.22,ENE,65,4.0,4.0,69,0.00,,,0.00,0,Wunderground v.1.15,2013-03-10 09:20:00,
2013-03-10 01:25:00,49.7,39.9,30.22,ENE,65,3.0,19.0,69,0.00,,,0.00,0,Wunderground v.1.15,2013-03-10 09:25:00,
2013-03-10 01:30:00,49.6,39.8,30.22,ENE,65,2.0,2.0,69,0.00,,,0.00,0,Wunderground v.1.15,2013-03-10 09:30:00,
2013-03-10 01:35:00,49.4,39.7,30.22,ENE,65,2.0,3.0,69,0.00,,,0.00,0,Wunderground v.1.15,2013-03-10 09:35:00,
2013-03-10 01:40:00,49.4,39.7,30.22,ENE,65,2.0,19.0,69,0.00,,,0.00,0,Wunderground v.1.15,2013-03-10 09:40:00,
2013-03-10 01:45:00,49.4,39.7,30.21,ENE,65,3.0,19.0,69,0.00,,,0.00,0,Wunderground v.1.15,2013-03-10 09:45:00,
2013-03-10 01:50:00,49.3,39.6,30.21,ENE,62,3.0,19.0,69,0.00,,,0.00,0,Wunderground v.1.15,2013-03-10 09:50:00,
2013-03-10 01:55:00,49.3,39.6,30.21,ENE,57,3.0,19.0,69,0.00,,,0.00,0,Wunderground v.1.15,2013-03-10 09:55:00,
2013-03-10 03:00:00,49.1,39.4,30.21,NE,56,3.0,19.0,69,0.00,,,0.00,0,Wunderground v.1.15,2013-03-10 10:00:00,
2013-03-10 03:05:00,48.9,39.2,30.21,NE,55,3.0,19.0,69,0.00,,,0.00,0,Wunderground v.1.15,2013-03-10 10:05:00,
2013-03-10 03:10:00,48.7,39.4,30.21,NE,55,3.0,3.0,70,0.00,,,0.00,0,Wunderground v.1.15,2013-03-10 10:10:00,
2013-03-10 03:15:00,48.5,39.2,30.21,NE,55,3.0,19.0,70,0.00,,,0.00,0,Wunderground v.1.15,2013-03-10 10:15:00,
2013-03-10 03:20:00,48.1,39.1,30.20,NE,55,3.0,19.0,71,0.00,,,0.00,0,Wunderground v.1.15,2013-03-10 10:20:00,
2013-03-10 03:25:00,47.9,39.3,30.21,NE,54,3.0,19.0,72,0.00,,,0.00,0,Wunderground v.1.15,2013-03-10 10:25:00,
2013-03-10 03:30:00,47.9,39.7,30.22,NNW,346,3.0,19.0,73,0.00,,,0.00,0,Wunderground v.1.15,2013-03-10 10:30:00,
2013-03-10 03:40:00,47.8,39.2,30.21,NNE,28,3.0,19.0,72,0.00,,,0.00,0,Wunderground v.1.15,2013-03-10 10:40:00,
2013-03-10 03:45:00,47.9,38.9,30.21,NNE,32,3.0,19.0,71,0.00,,,0.00,0,Wunderground v.1.15,2013-03-10 10:45:00,
2013-03-10 03:50:00,48.0,39.0,30.21,NE,41,3.0,19.0,71,0.00,,,0.00,0,Wunderground v.1.15,2013-03-10 10:50:00,
2013-03-10 03:55:00,48.1,39.1,30.21,NE,41,4.0,19.0,71,0.00,,,0.00,0,Wunderground v.1.15,2013-03-10 10:55:00,
2013-03-10 04:00:00,48.2,38.9,30.21,NE,42,3.0,3.0,70,0.00,,,0.00,0,Wunderground v.1.15,2013-03-10 11:00:00,
2013-03-10 04:10:00,48.2,38.9,30.21,NE,42,3.0,3.0,70,0.00,,,0.00,0,Wunderground v.1.15,2013-03-10 11:10:00,
2013-03-10 04:15:00,48.2,38.9,30.21,NE,42,2.0,19.0,70,0.00,,,0.00,0,Wunderground v.1.15,2013-03-10 11:15:00,
2013-03-10 04:20:00,48.1,38.8,30.21,NE,42,1.0,1.0,70,0.00,,,0.00,0,Wunderground v.1.15,2013-03-10 11:20:00,
2013-03-10 04:25:00,48.0,38.7,30.21,NE,42,0.0,19.0,70,0.00,,,0.00,0,Wunderground v.1.15,2013-03-10 11:25:00,
2013-03-10 04:30:00,47.7,38.4,30.21,NE,42,1.0,19.0,70,0.00,,,0.00,0,Wunderground v.1.15,2013-03-10 11:30:00,
2013-03-10 04:35:00,47.6,38.3,30.22,NE,42,1.0,19.0,70,0.00,,,0.00,0,Wunderground v.1.15,2013-03-10 11:35:00,
2013-03-10 04:40:00,47.5,38.6,30.22,NE,42,1.0,1.0,71,0.00,,,0.00,0,Wunderground v.1.15,2013-03-10 11:40:00,
2013-03-10 04:50:00,47.4,38.5,30.22,NE,42,1.0,19.0,71,0.00,,,0.00,0,Wunderground v.1.15,2013-03-10 11:50:00,
2013-03-10 04:55:00,47.5,38.6,30.23,NE,42,2.0,19.0,71,0.00,,,0.00,0,Wunderground v.1.15,2013-03-10 11:55:00,
2013-03-10 05:05:00,47.5,38.6,30.23,NE,42,0.0,2.0,71,0.00,,,0.00,0,Wunderground v.1.15,2013-03-10 12:05:00,
2013-03-10 05:10:00,47.4,38.5,30.23,NE,42,1.0,19.0,71,0.00,,,0.00,0,Wunderground v.1.15,2013-03-10 12:10:00,
2013-03-10 05:15:00,47.3,38.4,30.23,NE,42,2.0,19.0,71,0.00,,,0.00,0,Wunderground v.1.15,2013-03-10 12:15:00,
2013-03-10 05:20:00,47.2,38.6,30.23,NE,42,2.0,2.0,72,0.00,,,0.00,0,Wunderground v.1.15,2013-03-10 12:20:00,
2013-03-10 05:25:00,47.1,38.5,30.23,NE,42,1.0,19.0,72,0.00,,,0.00,0,Wunderground v.1.15,2013-03-10 12:25:00,
2013-03-10 05:30:00,47.0,38.4,30.23,NE,42,2.0,19.0,72,0.00,,,0.00,0,Wunderground v.1.15,2013-03-10 12:30:00,
2013-03-10 05:35:00,47.1,38.5,30.23,NE,42,3.0,19.0,72,0.00,,,0.00,0,Wunderground v.1.15,2013-03-10 12:35:00,
2013-03-10 05:45:00,47.2,38.6,30.23,NE,42,3.0,19.0,72,0.00,,,0.00,0,Wunderground v.1.15,2013-03-10 12:45:00,
2013-03-10 05:50:00,47.4,38.5,30.23,NE,42,3.0,19.0,71,0.00,,,0.00,0,Wunderground v.1.15,2013-03-10 12:50:00,
2013-03-10 05:55:00,47.5,38.6,30.23,NE,43,3.0,19.0,71,0.00,,,0.00,0,Wunderground v.1.15,2013-03-10 12:55:00,
2013-03-10 06:00:00,47.4,38.5,30.23,NE,43,3.0,19.0,71,0.00,,,0.00,0,Wunderground v.1.15,2013-03-10 13:00:00,
2013-03-10 06:05:00,47.3,38.4,30.23,NE,44,3.0,19.0,71,0.00,,,0.00,0,Wunderground v.1.15,2013-03-10 13:05:00,
2013-03-10 06:10:00,47.4,38.5,30.23,NE,45,3.0,19.0,71,0.00,,,0.00,0,Wunderground v.1.15,2013-03-10 13:10:00,
2013-03-10 06:20:00,47.4,38.1,30.23,ENE,60,4.0,19.0,70,0.00,,,0.00,0,Wunderground v.1.15,2013-03-10 13:20:00,
2013-03-10 06:25:00,47.4,38.5,30.23,NE,52,4.0,19.0,71,0.00,,,0.00,0,Wunderground v.1.15,2013-03-10 13:25:00,
2013-03-10 06:30:00,47.4,38.5,30.23,NE,46,4.0,19.0,71,0.00,,,0.00,0,Wunderground v.1.15,2013-03-10 13:30:00,
2013-03-10 06:35:00,47.3,38.4,30.23,NNE,31,4.0,19.0,71,0.00,,,0.00,0,Wunderground v.1.15,2013-03-10 13:35:00,
2013-03-10 06:40:00,47.2,38.3,30.23,NNE,26,4.0,19.0,71,0.00,,,0.00,0,Wunderground v.1.15,2013-03-10 13:40:00,
2013-03-10 06:45:00,47.2,38.3,30.23,NNE,24,4.0,19.0,71,0.00,,,0.00,0,Wunderground v.1.15,2013-03-10 13:45:00,
2013-03-10 06:50:00,47.3,38.4,30.24,NNE,24,3.0,19.0,71,0.00,,,0.00,0,Wunderground v.1.15,2013-03-10 13:50:00,
2013-03-10 06:55:00,47.6,38.3,30.24,NNE,28,3.0,19.0,70,0.00,,,0.00,0,Wunderground v.1.15,2013-03-10 13:55:00,
2013-03-10 07:00:00,47.9,38.2,30.24,NNE,28,3.0,3.0,69,0.00,,,0.00,0,Wunderground v.1.15,2013-03-10 14:00:00,
2013-03-10 07:05:00,48.1,38.0,30.24,NNE,30,3.0,19.0,68,0.00,,,0.00,0,Wunderground v.1.15,2013-03-10 14:05:00,
2013-03-10 07:10:00,48.1,38.0,30.24,NNE,29,3.0,3.0,68,0.00,,,0.00,0,Wunderground v.1.15,2013-03-10 14:10:00,
2013-03-10 07:15:00,48.1,37.7,30.24,NNE,30,2.0,19.0,67,0.00,,,0.00,7,Wunderground v.1.15,2013-03-10 14:15:00,
2013-03-10 07:20:00,48.0,37.6,30.24,NNE,30,3.0,19.0,67,0.00,,,0.00,9,Wunderground v.1.15,2013-03-10 14:20:00,
2013-03-10 07:30:00,48.3,37.8,30.25,NNE,33,3.0,3.0,67,0.00,,,0.00,18,Wunderground v.1.15,2013-03-10 14:30:00,
2013-03-10 07:35:00,48.3,37.8,30.25,NNE,33,3.0,19.0,67,0.00,,,0.00,21,Wunderground v.1.15,2013-03-10 14:35:00,
2013-03-10 07:40:00,48.5,38.0,30.25,NNE,33,2.0,19.0,67,0.00,,,0.00,25,Wunderground v.1.15,2013-03-10 14:40:00,
2013-03-10 07:45:00,48.7,38.2,30.25,NNE,33,3.0,19.0,67,0.00,,,0.00,33,Wunderground v.1.15,2013-03-10 14:45:00,
2013-03-10 07:50:00,49.1,38.2,30.25,NNE,33,2.0,19.0,66,0.00,,,0.00,46,Wunderground v.1.15,2013-03-10 14:50:00,
2013-03-10 08:00:00,50.2,38.5,30.26,NNE,32,2.0,19.0,64,0.00,,,0.00,79,Wunderground v.1.15,2013-03-10 15:00:00,
2013-03-10 08:05:00,50.9,38.7,30.26,NNE,31,2.0,19.0,63,0.00,,,0.00,97,Wunderground v.1.15,2013-03-10 15:05:00,
2013-03-10 08:10:00,51.7,38.7,30.26,NNE,26,3.0,19.0,61,0.00,,,0.00,114,Wunderground v.1.15,2013-03-10 15:10:00,
2013-03-10 08:15:00,52.5,38.6,30.26,NNE,22,4.0,19.0,59,0.00,,,0.00,139,Wunderground v.1.15,2013-03-10 15:15:00,
2013-03-10 08:20:00,53.3,38.4,30.26,NNE,16,4.0,4.0,57,0.00,,,0.00,160,Wunderground v.1.15,2013-03-10 15:20:00,
2013-03-10 08:25:00,54.1,38.3,30.26,NNE,15,4.0,8.0,55,0.00,,,0.00,181,Wunderground v.1.15,2013-03-10 15:25:00,
2013-03-10 08:30:00,54.7,38.4,30.26,NNE,17,4.0,19.0,54,0.00,,,0.00,207,Wunderground v.1.15,2013-03-10 15:30:00,
2013-03-10 08:40:00,55.5,38.1,30.27,NNE,15,4.0,19.0,52,0.00,,,0.00,253,Wunderground v.1.15,2013-03-10 15:40:00,
2013-03-10 08:45:00,55.9,38.0,30.27,NNE,22,4.0,19.0,51,0.00,,,0.00,279,Wunderground v.1.15,2013-03-10 15:45:00,
2013-03-10 08:55:00,57.3,39.3,30.27,NNE,22,1.0,19.0,51,0.00,,,0.00,318,Wunderground v.1.15,2013-03-10 15:55:00,
2013-03-10 09:00:00,58.5,39.4,30.27,NNE,22,1.0,19.0,49,0.00,,,0.00,341,Wunderground v.1.15,2013-03-10 16:00:00,
2013-03-10 09:05:00,59.0,38.2,30.27,NNE,28,2.0,19.0,46,0.00,,,0.00,357,Wunderground v.1.15,2013-03-10 16:05:00,
2013-03-10 09:10:00,59.3,39.1,30.27,NNE,28,3.0,19.0,47,0.00,,,0.00,374,Wunderground v.1.15,2013-03-10 16:10:00,
2013-03-10 09:15:00,59.7,37.7,30.27,NNE,20,3.0,19.0,44,0.00,,,0.00,394,Wunderground v.1.15,2013-03-10 16:15:00,
2013-03-10 09:20:00,59.8,37.8,30.28,NNE,15,4.0,4.0,44,0.00,,,0.00,410,Wunderground v.1.15,2013-03-10 16:20:00,
2013-03-10 09:25:00,59.6,38.8,30.28,North,355,3.0,5.0,46,0.00,,,0.00,427,Wunderground v.1.15,2013-03-10 16:25:00,
2013-03-10 09:30:00,59.4,38.6,30.28,North,351,3.0,19.0,46,0.00,,,0.00,445,Wunderground v.1.15,2013-03-10 16:30:00,
2013-03-10 09:35:00,59.5,37.6,30.28,NNW,338,4.0,19.0,44,0.00,,,0.00,462,Wunderground v.1.15,2013-03-10 16:35:00,
2013-03-10 09:45:00,60.0,38.6,30.28,NNW,332,5.0,19.0,45,0.00,,,0.00,492,Wunderground v.1.15,2013-03-10 16:45:00,
2013-03-10 09:50:00,60.3,39.4,30.28,NW,311,6.0,6.0,46,0.00,,,0.00,510,Wunderground v.1.15,2013-03-10 16:50:00,
2013-03-10 09:55:00,60.7,38.6,30.28,NNW,333,6.0,7.0,44,0.00,,,0.00,524,Wunderground v.1.15,2013-03-10 16:55:00,
2013-03-10 10:00:00,61.1,41.2,30.28,NNW,327,6.0,19.0,48,0.00,,,0.00,541,Wunderground v.1.15,2013-03-10 17:00:00,
2013-03-10 10:05:00,61.2,41.9,30.28,NNW,338,5.0,19.0,49,0.00,,,0.00,555,Wunderground v.1.15,2013-03-10 17:05:00,
2013-03-10 10:10:00,61.2,43.9,30.28,NNW,334,5.0,5.0,53,0.00,,,0.00,568,Wunderground v.1.15,2013-03-10 17:10:00,
2013-03-10 10:15:00,60.4,45.1,30.28,WNW,300,6.0,7.0,57,0.00,,,0.00,582,Wunderground v.1.15,2013-03-10 17:15:00,
2013-03-10 10:20:00,59.4,45.1,30.28,WNW,294,7.0,7.0,59,0.00,,,0.00,598,Wunderground v.1.15,2013-03-10 17:20:00,
2013-03-10 10:30:00,59.8,46.3,30.28,NNW,329,5.0,19.0,61,0.00,,,0.00,290,Wunderground v.1.15,2013-03-10 17:30:00,
2013-03-10 10:35:00,60.2,47.6,30.28,WNW,301,6.0,19.0,63,0.00,,,0.00,635,Wunderground v.1.15,2013-03-10 17:35:00,
2013-03-10 10:40:00,59.8,47.2,30.28,NW,304,6.0,6.0,63,0.00,,,0.00,649,Wunderground v.1.15,2013-03-10 17:40:00,
2013-03-10 10:45:00,60.3,46.4,30.28,NW,308,6.0,19.0,60,0.00,,,0.00,663,Wunderground v.1.15,2013-03-10 17:45:00,
2013-03-10 10:50:00,61.0,46.1,30.28,NW,309,5.0,19.0,58,0.00,,,0.00,647,Wunderground v.1.15,2013-03-10 17:50:00,
2013-03-10 10:55:00,61.1,47.1,30.28,NW,320,6.0,19.0,60,0.00,,,0.00,661,Wunderground v.1.15,2013-03-10 17:55:00,
2013-03-10 11:00:00,61.0,46.1,30.28,NW,311,6.0,19.0,58,0.00,,,0.00,698,Wunderground v.1.15,2013-03-10 18:00:00,
2013-03-10 11:10:00,61.3,47.7,30.27,NW,304,5.0,5.0,61,0.00,,,0.00,719,Wunderground v.1.15,2013-03-10 18:10:00,
2013-03-10 11:15:00,61.6,45.7,30.27,WNW,294,5.0,19.0,56,0.00,,,0.00,731,Wunderground v.1.15,2013-03-10 18:15:00,
2013-03-10 11:20:00,61.9,47.9,30.27,WNW,299,5.0,19.0,60,0.00,,,0.00,740,Wunderground v.1.15,2013-03-10 18:20:00,
2013-03-10 11:25:00,62.1,47.6,30.27,NW,305,5.0,19.0,59,0.00,,,0.00,747,Wunderground v.1.15,2013-03-10 18:25:00,
2013-03-10 11:30:00,61.7,47.2,30.27,WNW,282,6.0,6.0,59,0.00,,,0.00,759,Wunderground v.1.15,2013-03-10 18:30:00,
2013-03-10 11:40:00,61.1,47.5,30.27,WNW,299,7.0,19.0,61,0.00,,,0.00,773,Wunderground v.1.15,2013-03-10 18:40:00,
2013-03-10 11:45:00,61.4,47.8,30.27,NW,308,7.0,19.0,61,0.00,,,0.00,784,Wunderground v.1.15,2013-03-10 18:45:00,
2013-03-10 11:50:00,61.2,47.6,30.27,WNW,295,7.0,19.0,61,0.00,,,0.00,789,Wunderground v.1.15,2013-03-10 18:50:00,
2013-03-10 12:00:00,60.7,47.6,30.26,NNW,327,9.0,9.0,62,0.00,,,0.00,802,Wunderground v.1.15,2013-03-10 19:00:00,
2013-03-10 12:05:00,61.2,48.1,30.26,NW,308,8.0,19.0,62,0.00,,,0.00,809,Wunderground v.1.15,2013-03-10 19:05:00,
2013-03-10 12:10:00,62.0,47.5,30.26,WNW,288,7.0,7.0,59,0.00,,,0.00,816,Wunderground v.1.15,2013-03-10 19:10:00,
2013-03-10 12:15:00,62.1,48.0,30.26,WNW,302,7.0,10.0,60,0.00,,,0.00,819,Wunderground v.1.15,2013-03-10 19:15:00,
2013-03-10 12:20:00,61.6,47.6,30.26,WNW,296,8.0,8.0,60,0.00,,,0.00,819,Wunderground v.1.15,2013-03-10 19:20:00,
2013-03-10 12:25:00,61.4,49.9,30.26,NW,318,8.0,19.0,66,0.00,,,0.00,828,Wunderground v.1.15,2013-03-10 19:25:00,
2013-03-10 12:35:00,60.9,49.5,30.26,WNW,296,8.0,19.0,66,0.00,,,0.00,835,Wunderground v.1.15,2013-03-10 19:35:00,
2013-03-10 12:40:00,61.2,49.3,30.25,West,277,8.0,19.0,65,0.00,,,0.00,837,Wunderground v.1.15,2013-03-10 19:40:00,
2013-03-10 12:45:00,61.1,49.2,30.25,WNW,303,9.0,19.0,65,0.00,,,0.00,840,Wunderground v.1.15,2013-03-10 19:45:00,
2013-03-10 12:50:00,61.4,48.7,30.25,NW,315,9.0,19.0,63,0.00,,,0.00,844,Wunderground v.1.15,2013-03-10 19:50:00,
2013-03-10 12:55:00,61.4,48.7,30.24,WNW,300,9.0,19.0,63,0.00,,,0.00,844,Wunderground v.1.15,2013-03-10 19:55:00,
2013-03-10 13:00:00,61.8,48.6,30.24,West,277,9.0,9.0,62,0.00,,,0.00,844,Wunderground v.1.15,2013-03-10 20:00:00,
2013-03-10 13:05:00,61.7,48.5,30.24,WNW,284,8.0,10.0,62,0.00,,,0.00,846,Wunderground v.1.15,2013-03-10 20:05:00,
2013-03-10 13:15:00,61.6,49.3,30.24,NW,316,8.0,19.0,64,0.00,,,0.00,844,Wunderground v.1.15,2013-03-10 20:15:00,
2013-03-10 13:20:00,61.5,48.4,30.23,West,261,9.0,9.0,62,0.00,,,0.00,842,Wunderground v.1.15,2013-03-10 20:20:00,
2013-03-10 13:25:00,61.6,50.5,30.24,West,273,8.0,19.0,67,0.00,,,0.00,842,Wunderground v.1.15,2013-03-10 20:25:00,
2013-03-10 13:30:00,61.1,48.8,30.23,WSW,255,8.0,8.0,64,0.00,,,0.00,842,Wunderground v.1.15,2013-03-10 20:30:00,
2013-03-10 13:35:00,61.8,50.3,30.23,WNW,286,7.0,19.0,66,0.00,,,0.00,838,Wunderground v.1.15,2013-03-10 20:35:00,
2013-03-10 13:40:00,61.8,48.6,30.23,West,280,6.0,19.0,62,0.00,,,0.00,838,Wunderground v.1.15,2013-03-10 20:40:00,
2013-03-10 13:45:00,61.4,48.3,30.22,West,261,7.0,19.0,62,0.00,,,0.00,833,Wunderground v.1.15,2013-03-10 20:45:00,
2013-03-10 13:50:00,61.9,48.7,30.22,WNW,294,6.0,6.0,62,0.00,,,0.00,831,Wunderground v.1.15,2013-03-10 20:50:00,
2013-03-10 13:55:00,62.4,49.2,30.22,West,271,5.0,11.0,62,0.00,,,0.00,826,Wunderground v.1.15,2013-03-10 20:55:00,
2013-03-10 14:00:00,61.9,51.2,30.22,West,263,5.0,19.0,68,0.00,,,0.00,821,Wunderground v.1.15,2013-03-10 21:00:00,
2013-03-10 14:05:00,60.8,51.0,30.22,WSW,242,6.0,19.0,70,0.00,,,0.00,824,Wunderground v.1.15,2013-03-10 21:05:00,
2013-03-10 14:10:00,60.0,50.2,30.22,West,274,6.0,19.0,70,0.00,,,0.00,812,Wunderground v.1.15,2013-03-10 21:10:00,
2013-03-10 14:20:00,60.6,49.6,30.21,NW,310,6.0,19.0,67,0.00,,,0.00,807,Wunderground v.1.15,2013-03-10 21:20:00,
2013-03-10 14:25:00,60.8,50.2,30.21,WNW,282,6.0,19.0,68,0.00,,,0.00,795,Wunderground v.1.15,2013-03-10 21:25:00,
2013-03-10 14:30:00,60.9,50.7,30.21,WNW,288,6.0,6.0,69,0.00,,,0.00,789,Wunderground v.1.15,2013-03-10 21:30:00,
2013-03-10 14:35:00,60.5,50.7,30.20,WNW,287,7.0,11.0,70,0.00,,,0.00,779,Wunderground v.1.15,2013-03-10 21:35:00,
2013-03-10 14:40:00,60.7,51.6,30.20,NW,308,7.0,7.0,72,0.00,,,0.00,770,Wunderground v.1.15,2013-03-10 21:40:00,
2013-03-10 14:50:00,59.9,50.8,30.19,WNW,282,7.0,19.0,72,0.00,,,0.00,752,Wunderground v.1.15,2013-03-10 21:50:00,
2013-03-10 14:55:00,60.0,51.7,30.19,WNW,286,7.0,19.0,74,0.00,,,0.00,742,Wunderground v.1.15,2013-03-10 21:55:00,
2013-03-10 15:00:00,60.5,52.5,30.19,West,270,7.0,9.0,75,0.00,,,0.00,729,Wunderground v.1.15,2013-03-10 22:00:00,
2013-03-10 15:10:00,60.5,51.4,30.19,West,271,6.0,7.0,72,0.00,,,0.00,712,Wunderground v.1.15,2013-03-10 22:10:00,
2013-03-10 15:15:00,60.6,51.9,30.19,West,269,7.0,10.0,73,0.00,,,0.00,700,Wunderground v.1.15,2013-03-10 22:15:00,
2013-03-10 15:20:00,59.8,51.5,30.19,WSW,258,8.0,10.0,74,0.00,,,0.00,689,Wunderground v.1.15,2013-03-10 22:20:00,
2013-03-10 15:25:00,59.6,51.7,30.19,West,281,9.0,10.0,75,0.00,,,0.00,679,Wunderground v.1.15,2013-03-10 22:25:00,
2013-03-10 15:35:00,58.8,50.9,30.19,West,277,10.0,10.0,75,0.00,,,0.00,654,Wunderground v.1.15,2013-03-10 22:35:00,
2013-03-10 15:45:00,59.1,52.2,30.19,West,281,9.0,13.0,78,0.00,,,0.00,628,Wunderground v.1.15,2013-03-10 22:45:00,
2013-03-10 15:50:00,59.3,51.4,30.19,WNW,296,8.0,11.0,75,0.00,,,0.00,613,Wunderground v.1.15,2013-03-10 22:50:00,
2013-03-10 15:55:00,59.2,51.6,30.19,West,281,9.0,11.0,76,0.00,,,0.00,599,Wunderground v.1.15,2013-03-10 22:55:00,
2013-03-10 16:00:00,58.8,51.2,30.18,WNW,284,10.0,10.0,76,0.00,,,0.00,584,Wunderground v.1.15,2013-03-10 23:00:00,
2013-03-10 16:10:00,58.8,52.0,30.18,WNW,298,9.0,9.0,78,0.00,,,0.00,555,Wunderground v.1.15,2013-03-10 23:10:00,
2013-03-10 16:15:00,59.2,52.7,30.18,WNW,287,8.0,11.0,79,0.00,,,0.00,536,Wunderground v.1.15,2013-03-10 23:15:00,
2013-03-10 16:20:00,59.0,52.1,30.18,WSW,247,8.0,12.0,78,0.00,,,0.00,526,Wunderground v.1.15,2013-03-10 23:20:00,
2013-03-10 16:25:00,58.7,52.2,30.17,WNW,285,9.0,12.0,79,0.00,,,0.00,510,Wunderground v.1.15,2013-03-10 23:25:00,
2013-03-10 16:35:00,58.8,52.6,30.18,NW,306,9.0,13.0,80,0.00,,,0.00,476,Wunderground v.1.15,2013-03-10 23:35:00,
2013-03-10 16:40:00,58.8,53.0,30.18,WNW,298,8.0,11.0,81,0.00,,,0.00,461,Wunderground v.1.15,2013-03-10 23:40:00,
2013-03-10 16:50:00,58.8,52.6,30.18,WNW,286,8.0,11.0,80,0.00,,,0.00,425,Wunderground v.1.15,2013-03-10 23:50:00,
2013-03-10 16:55:00,59.2,53.4,30.17,WNW,282,7.0,11.0,81,0.00,,,0.00,408,Wunderground v.1.15,2013-03-10 23:55:00,
2013-03-10 17:00:00,58.4,52.9,30.17,West,271,8.0,11.0,82,0.00,,,0.00,388,Wunderground v.1.15,2013-03-11 00:00:00,
2013-03-10 17:05:00,58.2,52.7,30.17,SW,233,9.0,11.0,82,0.00,,,0.00,371,Wunderground v.1.15,2013-03-11 00:05:00,
2013-03-10 17:10:00,58.1,53.0,30.17,West,275,8.0,8.0,83,0.00,,,0.00,352,Wunderground v.1.15,2013-03-11 00:10:00,
2013-03-10 17:15:00,58.1,53.3,30.17,West,269,8.0,10.0,84,0.00,,,0.00,332,Wunderground v.1.15,2013-03-11 00:15:00,
2013-03-10 17:25:00,57.8,53.0,30.17,WNW,302,7.0,11.0,84,0.00,,,0.00,297,Wunderground v.1.15,2013-03-11 00:25:00,
2013-03-10 17:30:00,57.6,52.8,30.17,West,270,7.0,11.0,84,0.00,,,0.00,274,Wunderground v.1.15,2013-03-11 00:30:00,
2013-03-10 17:35:00,57.7,53.2,30.17,WNW,290,7.0,11.0,85,0.00,,,0.00,248,Wunderground v.1.15,2013-03-11 00:35:00,
2013-03-10 17:40:00,57.7,53.2,30.17,WNW,300,6.0,11.0,85,0.00,,,0.00,239,Wunderground v.1.15,2013-03-11 00:40:00,
2013-03-10 17:45:00,57.8,53.3,30.17,NW,309,6.0,11.0,85,0.00,,,0.00,213,Wunderground v.1.15,2013-03-11 00:45:00,
2013-03-10 17:55:00,57.5,53.0,30.17,NW,305,7.0,7.0,85,0.00,,,0.00,171,Wunderground v.1.15,2013-03-11 00:55:00,
2013-03-10 18:00:00,57.2,52.7,30.16,WNW,299,8.0,11.0,85,0.00,,,0.00,148,Wunderground v.1.15,2013-03-11 01:00:00,
2013-03-10 18:05:00,57.1,52.6,30.17,NW,322,8.0,11.0,85,0.00,,,0.00,127,Wunderground v.1.15,2013-03-11 01:05:00,
2013-03-10 18:15:00,56.9,52.8,30.17,WNW,300,8.0,11.0,86,0.00,,,0.00,88,Wunderground v.1.15,2013-03-11 01:15:00,
2013-03-10 18:20:00,56.8,53.0,30.17,WNW,302,8.0,8.0,87,0.00,,,0.00,74,Wunderground v.1.15,2013-03-11 01:20:00,
2013-03-10 18:25:00,56.6,52.8,30.17,West,281,7.0,11.0,87,0.00,,,0.00,58,Wunderground v.1.15,2013-03-11 01:25:00,
2013-03-10 18:35:00,56.3,52.5,30.17,NW,304,4.0,11.0,87,0.00,,,0.00,32,Wunderground v.1.15,2013-03-11 01:35:00,
2013-03-10 18:45:00,56.0,52.2,30.17,West,263,6.0,7.0,87,0.00,,,0.00,18,Wunderground v.1.15,2013-03-11 01:45:00,
2013-03-10 18:50:00,55.9,52.4,30.17,NW,306,6.0,11.0,88,0.00,,,0.00,14,Wunderground v.1.15,2013-03-11 01:50:00,
2013-03-10 18:55:00,55.7,52.2,30.17,NW,315,7.0,11.0,88,0.00,,,0.00,11,Wunderground v.1.15,2013-03-11 01:55:00,
2013-03-10 19:00:00,55.5,52.0,30.17,NW,312,7.0,7.0,88,0.00,,,0.00,7,Wunderground v.1.15,2013-03-11 02:00:00,
2013-03-10 19:05:00,55.5,52.0,30.17,NW,320,6.0,11.0,88,0.00,,,0.00,5,Wunderground v.1.15,2013-03-11 02:05:00,
2013-03-10 19:10:00,55.5,52.0,30.17,WNW,294,6.0,11.0,88,0.00,,,0.00,0,Wunderground v.1.15,2013-03-11 02:10:00,
2013-03-10 19:20:00,55.4,51.9,30.16,NW,304,6.0,11.0,88,0.00,,,0.00,0,Wunderground v.1.15,2013-03-11 02:20:00,
2013-03-10 19:25:00,55.3,51.8,30.17,WNW,303,5.0,11.0,88,0.00,,,0.00,0,Wunderground v.1.15,2013-03-11 02:25:00,
2013-03-10 19:30:00,55.3,51.8,30.17,WNW,284,5.0,11.0,88,0.00,,,0.00,0,Wunderground v.1.15,2013-03-11 02:30:00,
2013-03-10 19:35:00,55.2,51.7,30.17,WNW,300,4.0,11.0,88,0.00,,,0.00,0,Wunderground v.1.15,2013-03-11 02:35:00,
2013-03-10 19:40:00,55.2,51.7,30.17,WNW,294,4.0,11.0,88,0.00,,,0.00,0,Wunderground v.1.15,2013-03-11 02:40:00,
2013-03-10 19:45:00,55.1,51.6,30.17,West,269,5.0,11.0,88,0.00,,,0.00,0,Wunderground v.1.15,2013-03-11 02:45:00,
2013-03-10 19:50:00,55.1,51.6,30.17,WSW,247,5.0,5.0,88,0.00,,,0.00,0,Wunderground v.1.15,2013-03-11 02:50:00,
2013-03-10 19:55:00,55.1,51.9,30.17,WNW,302,4.0,11.0,89,0.00,,,0.00,0,Wunderground v.1.15,2013-03-11 02:55:00,
2013-03-10 20:00:00,55.0,51.8,30.17,NW,308,4.0,11.0,89,0.00,,,0.00,0,Wunderground v.1.15,2013-03-11 03:00:00,
2013-03-10 20:05:00,55.0,51.8,30.17,NW,306,5.0,11.0,89,0.00,,,0.00,0,Wunderground v.1.15,2013-03-11 03:05:00,
2013-03-10 20:15:00,55.0,51.8,30.17,NW,306,4.0,11.0,89,0.00,,,0.00,0,Wunderground v.1.15,2013-03-11 03:15:00,
2013-03-10 20:20:00,55.0,51.8,30.17,NW,318,4.0,11.0,89,0.00,,,0.00,0,Wunderground v.1.15,2013-03-11 03:20:00,
2013-03-10 20:25:00,54.9,51.7,30.17,NW,305,4.0,11.0,89,0.00,,,0.00,0,Wunderground v.1.15,2013-03-11 03:25:00,
2013-03-10 20:30:00,54.9,51.7,30.17,NNW,327,3.0,11.0,89,0.00,,,0.00,0,Wunderground v.1.15,2013-03-11 03:30:00,
2013-03-10 20:40:00,54.7,51.5,30.17,NW,315,3.0,3.0,89,0.00,,,0.00,0,Wunderground v.1.15,2013-03-11 03:40:00,
2013-03-10 20:45:00,54.6,51.7,30.17,NW,315,3.0,4.0,90,0.00,,,0.00,0,Wunderground v.1.15,2013-03-11 03:45:00,
2013-03-10 20:55:00,54.6,51.7,30.17,NW,315,2.0,11.0,90,0.00,,,0.00,0,Wunderground v.1.15,2013-03-11 03:55:00,
2013-03-10 21:00:00,54.5,51.6,30.17,NW,315,2.0,11.0,90,0.00,,,0.00,0,Wunderground v.1.15,2013-03-11 04:00:00,
2013-03-10 21:05:00,54.4,51.5,30.17,NW,315,3.0,11.0,90,0.00,,,0.00,0,Wunderground v.1.15,2013-03-11 04:05:00,
2013-03-10 21:10:00,54.4,51.5,30.17,NW,315,3.0,3.0,90,0.00,,,0.00,0,Wunderground v.1.15,2013-03-11 04:10:00,
2013-03-10 21:20:00,54.3,51.4,30.18,NW,315,1.0,11.0,90,0.00,,,0.00,0,Wunderground v.1.15,2013-03-11 04:20:00,
2013-03-10 21:25:00,54.3,51.4,30.18,NW,315,1.0,11.0,90,0.00,,,0.00,0,Wunderground v.1.15,2013-03-11 04:25:00,
2013-03-10 21:30:00,54.2,51.6,30.18,NW,315,1.0,11.0,91,0.00,,,0.00,0,Wunderground v.1.15,2013-03-11 04:30:00,
2013-03-10 21:40:00,54.2,51.6,30.18,WNW,298,3.0,11.0,91,0.00,,,0.00,0,Wunderground v.1.15,2013-03-11 04:40:00,
2013-03-10 21:45:00,54.2,51.6,30.18,WNW,300,3.0,11.0,91,0.00,,,0.00,0,Wunderground v.1.15,2013-03-11 04:45:00,
2013-03-10 21:50:00,54.1,51.5,30.18,WNW,300,3.0,11.0,91,0.00,,,0.00,0,Wunderground v.1.15,2013-03-11 04:50:00,
2013-03-10 21:55:00,54.2,51.9,30.19,NW,306,3.0,11.0,92,0.00,,,0.00,0,Wunderground v.1.15,2013-03-11 04:55:00,
2013-03-10 22:00:00,54.1,51.8,30.18,WNW,296,3.0,3.0,92,0.00,,,0.00,0,Wunderground v.1.15,2013-03-11 05:00:00,
2013-03-10 22:05:00,54.1,51.8,30.19,WNW,299,3.0,11.0,92,0.00,,,0.00,0,Wunderground v.1.15,2013-03-11 05:05:00,
2013-03-10 22:15:00,54.0,51.7,30.19,WNW,298,2.0,4.0,92,0.00,,,0.00,0,Wunderground v.1.15,2013-03-11 05:15:00,
2013-03-10 22:20:00,53.9,51.6,30.19,NW,306,3.0,11.0,92,0.00,,,0.00,0,Wunderground v.1.15,2013-03-11 05:20:00,
2013-03-10 22:25:00,54.0,51.7,30.19,WNW,303,4.0,11.0,92,0.00,,,0.00,0,Wunderground v.1.15,2013-03-11 05:25:00,
2013-03-10 22:30:00,54.0,51.7,30.19,WNW,303,3.0,3.0,92,0.00,,,0.00,0,Wunderground v.1.15,2013-03-11 05:30:00,
2013-03-10 22:35:00,53.9,51.6,30.19,WNW,303,2.0,11.0,92,0.00,,,0.00,0,Wunderground v.1.15,2013-03-11 05:35:00,
2013-03-10 22:40:00,53.8,51.5,30.19,WNW,303,2.0,11.0,92,0.00,,,0.00,0,Wunderground v.1.15,2013-03-11 05:40:00,
2013-03-10 22:45:00,53.7,51.4,30.19,WNW,303,2.0,11.0,92,0.00,,,0.00,0,Wunderground v.1.15,2013-03-11 05:45:00,
2013-03-10 22:55:00,53.7,51.4,30.19,WNW,303,3.0,11.0,92,0.00,,,0.00,0,Wunderground v.1.15,2013-03-11 05:55:00,
2013-03-10 23:05:00,53.5,51.2,30.19,WNW,303,2.0,11.0,92,0.00,,,0.00,0,Wunderground v.1.15,2013-03-11 06:05:00,
2013-03-10 23:10:00,53.4,51.1,30.18,WNW,303,2.0,2.0,92,0.00,,,0.00,0,Wunderground v.1.15,2013-03-11 06:10:00,
2013-03-10 23:15:00,53.3,51.0,30.18,WNW,303,2.0,11.0,92,0.00,,,0.00,0,Wunderground v.1.15,2013-03-11 06:15:00,
2013-03-10 23:20:00,53.2,51.2,30.18,WNW,303,2.0,2.0,93,0.00,,,0.00,0,Wunderground v.1.15,2013-03-11 06:20:00,
2013-03-10 23:25:00,52.9,50.6,30.19,NW,306,1.0,3.0,92,0.00,,,0.00,0,Wunderground v.1.15,2013-03-11 06:25:00,
2013-03-10 23:30:00,52.8,50.8,30.18,NW,306,2.0,11.0,93,0.00,,,0.00,0,Wunderground v.1.15,2013-03-11 06:30:00,
2013-03-10 23:35:00,52.7,50.7,30.18,NW,306,2.0,11.0,93,0.00,,,0.00,0,Wunderground v.1.15,2013-03-11 06:35:00,
2013-03-10 23:45:00,52.2,50.2,30.18,NW,306,2.0,11.0,93,0.00,,,0.00,0,Wunderground v.1.15,2013-03-11 06:45:00,
2013-03-10 23:50:00,52.1,50.1,30.18,NW,306,2.0,11.0,93,0.00,,,0.00,0,Wunderground v.1.15,2013-03-11 06:50:00,
2013-03-10 23:55:00,52.1,50.1,30.18,NW,306,2.0,11.0,93,0.00,,,0.00,0,Wunderground v.1.15,2013-03-11 06:55:00,